Boonton, New Jersey, United States (07005)
Lat: 40.90N, Lon: 74.41W
Wx Zone: NJZ008
Local Info
Past Weather Observations for Saturday, October 18, 2014

NOTE: This archive is for the closest National Weather Service station to Boonton. Information may differ from the station used for current weather conditions.

Click here for Long-term Archive

Time Weather Temperature Dewpoint Humidity Pressure Winds Precip Visibility
23:53
Overcast
54°F / 12°C 39°F / 4°C 58% 29.74 in
(1007 mb)
NW 10.4 mph
(NW 17 kph)
- 10SM
22:53
Overcast
54°F / 12°C 41°F / 5°C 63% 29.74 in
(1007 mb)
WNW 6.9 mph
(WNW 11 kph)
- 10SM
21:53
Partly Cloudy
55°F / 13°C 41°F / 5°C 59% 29.74 in
(1007 mb)
WNW 3.5 mph
(WNW 6 kph)
- 10SM
20:53
Mostly Cloudy
55°F / 13°C 41°F / 5°C 59% 29.71 in
(1006 mb)
NW 5.8 mph
(NW 9 kph)
- 10SM
19:53
Overcast
57°F / 14°C 39°F / 4°C 51% 29.71 in
(1006 mb)
WNW 11.5 mph
(WNW 19 kph)
- 10SM
18:53
Overcast
59°F / 15°C 41°F / 5°C 51% 29.68 in
(1005 mb)
W 9.2 mph
(W 15 kph)
- 10SM
17:53
Overcast
59°F / 15°C 43°F / 6°C 55% 29.68 in
(1005 mb)
NW 5.8 mph
(NW 9 kph)
- 10SM
16:53
Overcast
61°F / 16°C 43°F / 6°C 52% 29.65 in
(1004 mb)
NW 6.9 mph
(NW 11 kph)
- 10SM
15:53
Overcast
63°F / 17°C 45°F / 7°C 52% 29.62 in
(1003 mb)
NW 11.5 mph
(NW 19 kph)
- 10SM
14:53
Overcast
66°F / 19°C 45°F / 7°C 46% 29.59 in
(1002 mb)
NW 9.2 mph
(NW 15 kph)
- 10SM
13:53
Overcast
66°F / 19°C 43°F / 6°C 43% 29.59 in
(1002 mb)
W 9.2 mph
(W 15 kph)
- 10SM
12:53
Overcast
66°F / 19°C 45°F / 7°C 46% 29.59 in
(1002 mb)
W 12.7 mph
(W 20 kph)
- 10SM
11:53
Mostly Cloudy
66°F / 19°C 46°F / 8°C 49% 29.59 in
(1002 mb)
WNW 12.7 mph
(WNW 20 kph)
- 10SM
10:53
Overcast
66°F / 19°C 50°F / 10°C 56% 29.59 in
(1002 mb)
W 9.2 mph
(W 15 kph)
- 10SM
09:53
Overcast
61°F / 16°C 54°F / 12°C 77% 29.59 in
(1002 mb)
SW 3.5 mph
(SW 6 kph)
- 10SM
08:53
Overcast
59°F / 15°C 54°F / 12°C 82% 29.59 in
(1002 mb)
Variable 4.6 mph
(Variable 7 kph)
- 10SM
07:53
Mostly Cloudy
55°F / 13°C 52°F / 11°C 88% 29.62 in
(1003 mb)
Calm - 9SM
06:53
Overcast
54°F / 12°C 50°F / 10°C 88% 29.59 in
(1002 mb)
Calm - 9SM
05:53
Mostly Cloudy
52°F / 11°C 48°F / 9°C 88% 29.59 in
(1002 mb)
Calm - 8SM
04:53
Partly Cloudy
52°F / 11°C 48°F / 9°C 88% 29.59 in
(1002 mb)
Calm - 7SM
03:53
Clear
52°F / 11°C 48°F / 9°C 88% 29.59 in
(1002 mb)
Calm - 10SM
02:53
Clear
54°F / 12°C 48°F / 9°C 82% 29.62 in
(1003 mb)
Calm - 10SM
01:53
Clear
54°F / 12°C 50°F / 10°C 88% 29.62 in
(1003 mb)
Calm - 10SM
00:53
Overcast
55°F / 13°C 52°F / 11°C 88% 29.65 in
(1004 mb)
Calm - 10SM
Time Weather Temperature Dewpoint Humidity Pressure Winds Precip Visibility


Weather for websites

WeatherForYou.com, LLC is not responsible for any damages or problems caused by this service. Current weather conditions are obtained from the closest station including government and personal stations which may have varying degrees of accuracy. Weather forecasts are derived from the NOAA NDFD. Like all things, this site belongs to Jesus Christ... He just trusts me to maintain it. If you have any questions or comments email webmaster@weatherforyou.com

Copyright © 2014, WeatherForYou.com LLC. All rights reserved.